Location: Ashland County Jail
(40.8689°N, 82.3177°W)
Time: 15:39:20
(UTC+00:00)

Daily predictions for brighter satellites

Satellite Brightness Start Highest point End
(mag) Time Altitude Azimuth Time Altitude Azimuth Time Altitude Azimuth
Cosmos 1340 Rocket 4.1 12:00:02 10° WSW 12:03:01 20° WNW 12:06:01 10° NNW
USA 215 3.3 12:00:02 10° SE 12:06:35 88° SW 12:13:09 10° NW
CZ-4B R/B 3.4 12:04:39 10° N 12:07:49 30° WNW 12:11:02 10° SW
SJ 16-02 2.9 12:06:24 10° W 12:08:59 15° WNW 12:11:35 10° NNW
Cosmos 1607 4.0 12:06:48 10° NW 12:12:58 66° WSW 12:19:01 10° SSE
Cosmos 1553 Rocket 4.1 12:08:12 10° N 12:14:18 85° E 12:20:26 10° S
Cosmos 1666 Rocket 3.6 12:10:52 10° SSW 12:15:19 71° W 12:19:48 10° N
Cosmos 1937 Rocket 3.6 22:23:05 10° NNW 22:28:27 89° WSW 22:33:44 10° SSE
Cosmos 2279 Rocket 4.4 22:23:21 10° SSE 22:29:04 40° E 22:34:47 10° NNE
Cosmos 1697 Rocket 3.2 22:25:57 10° NNW 22:31:30 66° WSW 22:37:04 10° S
Okean O Rocket 3.3 22:30:21 10° E 22:32:19 13° ENE 22:34:16 10° NE
Cosmos 1627 Rocket 4.5 22:27:04 10° N 22:33:13 70° E 22:39:18 10° SSE
Cosmos 2322 Rocket 3.7 22:30:40 10° N 22:34:09 16° NE 22:37:37 10° E
Cosmos 1980 Rocket 2.2 22:32:14 10° NNW 22:37:54 72° ENE 22:43:30 10° SSE
CZ-4C R/B 3.1 22:31:20 10° NNW 22:38:37 61° NE 22:47:01 10° SE
CORIOLIS 4.3 22:33:36 10° SE 22:38:48 51° ENE 22:44:03 10° N
Sich 1 3.0 22:34:37 10° N 22:38:56 75° E 22:43:16 10° SSE
H-2A R/B 2.7 22:35:10 10° SE 22:39:34 30° ENE 22:43:55 10° N
Meteor 1-26 Rocket 4.4 22:36:00 10° S 22:41:59 89° E 22:48:04 10° N
Cosmos 1933 4.4 22:39:13 10° SSW 22:43:07 48° W 22:47:02 10° N
Cosmos 1602 4.4 22:43:10 10° NNW 22:47:00 60° W 22:50:49 10° S
CZ-2C R/B 3.4 22:43:22 10° S 22:48:11 64° WSW 22:52:55 10° NNW
SMAP 3.0 22:43:48 10° SSE 22:48:24 69° ENE 22:53:03 10° N
Cosmos 2369 4.1 22:44:29 10° NNW 22:50:12 72° WSW 22:55:52 10° SSE
Cosmos 1634 Rocket 4.2 22:45:21 10° S 22:51:41 84° W 22:58:03 10° N
Cosmos 1805 Rocket 4.2 22:47:52 10° NNW 22:52:08 58° W 22:56:23 10° S
USA 234 3.7 22:46:52 10° E 22:52:56 42° NNE 22:58:59 10° NW
Cosmos 2026 Rocket 4.0 22:46:57 10° N 22:53:05 84° W 22:59:07 10° S
ARGOS 4.0 22:49:47 10° ESE 22:54:12 26° ENE 22:58:36 10° N
USA 305 4.4 22:51:26 10° NNW 22:54:38 20° NNE 22:56:55 14° ENE
Cosmos 2082 Rocket 2.8 22:49:06 10° SW 22:54:41 58° WNW 23:00:16 10° NNE
CZ-4B R/B 3.7 22:51:14 10° S 22:55:09 53° W 22:58:52 10° NNW
SL-16 R/B 3.0 22:50:28 10° N 22:55:21 29° NE 23:00:13 10° ESE
Cosmos 1500 3.3 22:52:16 10° NNW 22:55:59 74° W 22:59:41 10° S
NOAA 6 4.0 22:52:45 10° SSE 22:57:53 84° ENE 23:03:02 10° NNW
Meteor 2-21 Rocket 4.4 22:52:31 10° N 22:58:37 75° E 23:04:38 10° SSE
Meteor 1-5 Rocket 4.3 22:55:45 10° N 23:01:41 66° ENE 23:07:27 10° SSE
COSMOS 2455 4.1 23:01:27 10° WSW 23:07:02 39° NW 23:12:40 10° NNE
Cosmos 1515 Rocket 4.2 23:03:48 10° SSE 23:07:49 35° E 23:11:51 10° NNE
Cosmos 921 Rocket 2.9 23:04:47 10° S 23:08:55 63° ESE 23:13:08 10° NNE
Cosmos 2278 3.8 23:06:52 10° NNW 23:12:36 84° WSW 23:18:16 10° SSE
CZ-4B DEB 4.2 23:07:25 10° SSE 23:12:55 86° ENE 23:18:26 10° NNW
Cosmos 44 Rocket 3.2 23:08:49 10° NNW 23:13:40 62° NE 23:18:21 10° SE
CZ-2D R/B 3.1 23:11:03 10° SSE 23:14:51 70° ENE 23:18:39 10° N
Cosmos 2333 Rocket 4.1 23:12:57 10° NNE 23:14:13 12° NE 23:14:13 12° NE
CZ-2C R/B 2.7 23:13:01 10° NNE 23:18:04 52° E 23:23:06 10° S
Cosmos 1939 Rocket 4.2 23:16:03 10° S 23:19:57 43° W 23:23:51 10° NNW
ISS -2.1 23:17:01 10° WNW 23:20:10 36° SW 23:23:17 10° SSE
Cosmos 1666 3.1 23:20:59 10° NNW 23:24:39 61° W 23:28:18 10° S
Cosmos 1151 Rocket 4.0 23:22:55 10° SSW 23:27:07 49° W 23:31:21 10° N
USA 306 3.9 23:23:34 10° NNW 23:27:13 27° NNE 23:27:55 26° NE
Genesis I 4.3 23:24:27 10° S 23:27:40 25° ESE 23:27:51 25° ESE
Cosmos 1633 Rocket 3.5 23:27:44 10° NNW 23:32:05 63° W 23:36:25 10° S
COSMO-SKYMED 1 2.5 23:28:02 11° NNE 23:32:13 69° ESE 23:36:32 10° S
Landsat 5 3.6 23:31:15 29° NE 23:32:48 44° E 23:36:32 10° S
CZ-2C R/B 2.4 23:29:49 10° WSW 23:33:49 37° S 23:35:52 22° SE
Cosmos 1655 Rocket 4.0 23:27:39 10° N 23:34:01 66° E 23:40:18 10° SSE
Aureole 3 Rocket 3.7 23:31:37 10° SSE 23:35:47 46° E 23:41:33 10° NNE
APEX 3.4 23:33:30 10° SW 23:37:19 60° WNW 23:38:59 26° N
CZ-4B R/B 3.0 23:33:10 10° SSE 23:38:34 77° ENE 23:43:54 10° N
Tiangong 2.2 23:35:48 10° SW 23:38:39 31° SSE 23:38:49 31° SSE
Helios 1B 4.4 23:34:54 13° NNE 23:38:43 78° ESE 23:43:02 10° S
SJ-11-01 4.2 23:34:09 10° SSE 23:38:49 63° ENE 23:43:31 10° N
Cosmos 2298 Rocket 3.9 23:34:21 10° NNW 23:39:42 80° ENE 23:45:02 10° SSE
X-37B 0.5 23:39:54 10° W 23:42:42 62° NNW 23:42:42 62° NNW
Cosmos 836 Rocket 4.4 23:40:22 10° SSW 23:45:40 80° ESE 23:49:14 21° NNE
USA 307 3.8 23:44:09 10° NW 23:47:43 32° NNE 23:47:43 32° NNE
Lacrosse 5 rocket 1.3 23:45:31 10° NW 23:49:30 78° SW 23:51:43 27° SE
Meteor 1-27 Rocket 3.6 23:44:05 10° S 23:49:32 67° E 23:53:57 16° NNE
Meteor 2-15 Rocket 4.4 23:47:04 10° S 23:53:12 88° W 23:59:20 10° N
Cosmos 1544 3.1 23:50:09 10° N 23:53:46 75° W 23:57:23 10° S
SL-08 RB Rocket 3.6 23:50:41 10° SSE 23:55:15 63° ENE 23:59:48 10° N
